Paducah, KY

8:04 AM CDT on August 23, 2017 (GMT -0500)
Barkley Regional

Weather History for KPAH - July, 2014

Change the Weather History Date:

Monday, July 28, 2014

  Actual Average Record
Temperature  
Mean Temperature 75 °F 79 °F  
Max Temperature 86 °F 89 °F 106 °F (1952)
Min Temperature 63 °F 68 °F 51 °F (2013)
Degree Days  
Heating Degree Days 0 0  
Month to date heating degree days 0 0  
Since 1 June heating degree days 0 4  
Since 1 July heating degree days 0 0  
Cooling Degree Days 10 14  
Month to date cooling degree days 301 392  
Year to date cooling degree days 984 884  
Since 1 June cooling degree days 706 712  
Growing Degree Days 26 (Base 50)    
Moisture  
Dew Point 60 °F    
Average Humidity 62    
Maximum Humidity 76    
Minimum Humidity 48    
Precipitation  
Precipitation 0.00 in 0.13 in 2.93 in (1972)
Month to date precipitation 2.04 4.06  
Year to date precipitation 28.92 29.34  
Snow  
Snow 0.00 in 0.00 in 0.00 in (2002)
Month to date snowfall 0.0 0.0  
Since 1 June snowfall 0.0 0.0  
Since 1 July snowfall 0.0 0.0  
Snow Depth 0.00 in    
Sea Level Pressure  
Sea Level Pressure 30.02 in    
Wind  
Wind Speed 8 mph (NNW)    
Max Wind Speed 16 mph    
Max Gust Speed 21 mph    
Visibility 10 miles    
Events      
T = Trace of Precipitation, MM = Missing Value Source: NWS Daily Summary

Daily Weather History Graph

Daily Weather History Graph

Search for Another Location

Airport or City:

Trip Planner

Search our weather history database for the weather conditions in past years. The results will help you decide how hot, cold, wet, or windy it might be!

Date:

Astronomy

Jul. 28, 2014 Rise Set
Actual Time 5:56 AM CDT 8:05 PM CDT
Civil Twilight 5:27 AM CDT 8:34 PM CDT
Nautical Twilight 4:52 AM CDT 9:10 PM CDT
Astronomical Twilight 4:13 AM CDT 9:48 PM CDT
Moon 7:34 AM CDT (7/28) 8:51 PM CDT (7/28)
Length of Visible Light 15h 06m
Length of Day
14h 08m
Waxing Crescent, 3% of the Moon is Illuminated
Jul 28
Waxing Crescent
Aug 3
First Quarter
Aug 10
Full
Aug 17
Last Quarter
Aug 25
New

Hourly Weather History & Observations

Time (CDT) Temp. Heat Index Dew Point Humidity Pressure Visibility Wind Dir Wind Speed Gust Speed Precip Events Conditions
12:53 AM 75.0 °F - 60.1 °F 60% 29.95 in 10.0 mi NNW 5.8 mph - N/A   Clear
1:53 AM 73.0 °F - 57.9 °F 59% 29.95 in 10.0 mi NNW 8.1 mph - N/A   Clear
2:53 AM 71.1 °F - 57.9 °F 63% 29.95 in 10.0 mi NNW 5.8 mph - N/A   Clear
3:53 AM 69.1 °F - 57.9 °F 68% 29.96 in 10.0 mi WNW 4.6 mph - N/A   Clear
4:53 AM 68.0 °F - 57.9 °F 70% 29.99 in 10.0 mi WNW 4.6 mph - N/A   Clear
5:53 AM 66.0 °F - 57.9 °F 75% 30.00 in 10.0 mi West 5.8 mph - N/A   Clear
6:53 AM 68.0 °F - 60.1 °F 76% 30.01 in 10.0 mi West 5.8 mph - N/A   Clear
7:53 AM 72.0 °F - 61.0 °F 68% 30.02 in 10.0 mi NNW 6.9 mph - N/A   Clear
8:53 AM 73.4 °F - 60.8 °F 65% 30.05 in 10.0 mi NNW 10.4 mph - N/A   Clear
9:53 AM 75.9 °F - 63.0 °F 64% 30.04 in 10.0 mi WNW 6.9 mph - N/A   Partly Cloudy
10:53 AM 78.1 °F - 63.0 °F 60% 30.05 in 10.0 mi WNW 5.8 mph - N/A   Scattered Clouds
11:10 AM 79.0 °F - 63.0 °F 58% 30.06 in 10.0 mi NW 9.2 mph - N/A   Mostly Cloudy
11:22 AM 79.0 °F - 62.1 °F 56% 30.06 in 10.0 mi NNW 10.4 mph - N/A   Mostly Cloudy
11:53 AM 81.0 °F 82.2 °F 63.0 °F 54% 30.05 in 10.0 mi NW 9.2 mph - N/A   Mostly Cloudy
12:53 PM 78.8 °F - 62.6 °F 57% 30.05 in 10.0 mi NW 8.1 mph - N/A   Mostly Cloudy
1:53 PM 80.6 °F 81.5 °F 60.8 °F 51% 30.04 in 10.0 mi NNW 12.7 mph 17.3 mph N/A   Mostly Cloudy
2:53 PM 82.4 °F 83.4 °F 62.6 °F 51% 30.04 in 10.0 mi NNW 15.0 mph 20.7 mph N/A   Mostly Cloudy
3:53 PM 84.0 °F 84.9 °F 63.0 °F 49% 30.02 in 10.0 mi NNW 8.1 mph 17.3 mph N/A   Mostly Cloudy
4:53 PM 82.0 °F 83.0 °F 62.1 °F 51% 30.01 in 10.0 mi NNW 11.5 mph - N/A   Mostly Cloudy
5:53 PM 80.1 °F 81.1 °F 61.0 °F 52% 30.01 in 10.0 mi NNW 9.2 mph - N/A   Mostly Cloudy
6:53 PM 79.0 °F - 60.1 °F 52% 30.02 in 10.0 mi NNW 11.5 mph - N/A   Scattered Clouds
7:53 PM 75.9 °F - 61.0 °F 60% 30.02 in 10.0 mi North 9.2 mph - N/A   Scattered Clouds
8:53 PM 73.0 °F - 60.1 °F 64% 30.04 in 10.0 mi North 9.2 mph - N/A   Partly Cloudy
9:53 PM 71.1 °F - 59.0 °F 66% 30.06 in 10.0 mi North 10.4 mph - N/A   Clear
10:53 PM 69.1 °F - 57.9 °F 68% 30.07 in 10.0 mi North 6.9 mph - N/A   Clear
11:53 PM 66.0 °F - 55.9 °F 70% 30.07 in 10.0 mi North 6.9 mph - N/A   Clear